Weather History for Gustavus, AK

Change the Weather History Date:

Sunday, September 25, 2011

  Actual Average Record
Temperature  
Mean Temperature 42 °F -  
Max Temperature 53 °F 55 °F 64 °F (1977)
Min Temperature 30 °F 37 °F 23 °F (1978)
Degree Days  
Heating Degree Days 24    
Moisture  
Dew Point 35 °F    
Average Humidity 77    
Maximum Humidity 93    
Minimum Humidity 54    
Precipitation  
Precipitation 0.00 in - - ()
Sea Level Pressure  
Sea Level Pressure 29.46 in    
Wind  
Wind Speed 1 mph (SE)    
Max Wind Speed 7 mph    
Max Gust Speed -    
Visibility 10 miles    
Events      
Averages and records for this station are not official NWS values.
T = Trace of Precipitation, MM = Missing Value Source: NWS Daily Summary

Daily Weather History Graph

Daily Weather History Graph

Search for Another Location

Airport:

Trip Planner

Search our weather history database for the weather conditions in past years. The results will help you decide how hot, cold, wet, or windy it might be!

Date:

Astronomy

Sep. 25, 2011 Rise Set
Actual Time 6:53 AM AKDT 6:53 PM AKDT
Civil Twilight 6:14 AM AKDT 7:33 PM AKDT
Nautical Twilight 5:27 AM AKDT 8:20 PM AKDT
Astronomical Twilight 4:36 AM AKDT 9:10 PM AKDT
Moon 4:31 AM AKDT (9/25) 5:47 PM AKDT (9/25)
Length of Visible Light 13h 19m
Length of Day
11h 59m
Waning Crescent, 4% of the Moon is Illuminated
Sep 25
Waning Crescent
Sep 27
New
Oct 3
First Quarter
Oct 11
Full
Oct 19
Last Quarter

Hourly Weather History & Observations

Time (AKDT) Temp. Windchill Dew Point Humidity Pressure Visibility Wind Dir Wind Speed Gust Speed Precip Events Conditions
12:36 AM 37.4 °F 34.9 °F 33.8 °F 87% 29.53 in 10.0 mi NNW 3.5 mph - N/A   Clear
12:56 AM 35.6 °F - 33.8 °F 93% 29.52 in 7.0 mi Calm Calm - N/A   Clear
1:16 AM 35.6 °F - 32.0 °F 87% 29.51 in 10.0 mi Calm Calm - N/A   Clear
1:36 AM 35.6 °F - 32.0 °F 87% 29.50 in 10.0 mi Calm Calm - N/A   Clear
1:56 AM 35.6 °F - 32.0 °F 87% 29.49 in 10.0 mi Calm Calm - N/A   Clear
2:16 AM 35.6 °F - 33.8 °F 93% 29.47 in 10.0 mi Calm Calm - N/A   Clear
2:36 AM 33.8 °F - 30.2 °F 87% 29.47 in 10.0 mi Calm Calm - N/A   Clear
2:56 AM 33.8 °F - 30.2 °F 87% 29.47 in 10.0 mi Calm Calm - N/A   Clear
3:16 AM 33.8 °F - 30.2 °F 87% 29.45 in 10.0 mi Calm Calm - N/A   Clear
3:36 AM 33.8 °F - 30.2 °F 87% 29.44 in 6.0 mi Calm Calm - N/A   Clear
3:56 AM 33.8 °F - 30.2 °F 87% 29.44 in 10.0 mi Calm Calm - N/A   Clear
4:16 AM 33.8 °F - 30.2 °F 87% 29.43 in 10.0 mi Calm Calm - N/A   Clear
4:36 AM 33.8 °F - 30.2 °F 87% 29.42 in 10.0 mi Calm Calm - N/A   Clear
4:56 AM 32.0 °F - 28.4 °F 87% 29.42 in 10.0 mi Calm Calm - N/A   Clear
5:16 AM 32.0 °F - 30.2 °F 93% 29.41 in 10.0 mi Calm Calm - N/A   Clear
5:36 AM 32.0 °F - 28.4 °F 87% 29.41 in 10.0 mi Calm Calm - N/A   Clear
5:56 AM 30.2 °F - 28.4 °F 93% 29.40 in 10.0 mi Calm Calm - N/A   Clear
6:36 AM 30.2 °F - 28.4 °F 93% 29.39 in 10.0 mi Calm Calm - N/A   Clear
6:56 AM 30.2 °F - 28.4 °F 93% 29.39 in 10.0 mi Calm Calm - N/A   Clear
7:16 AM 30.2 °F - 28.4 °F 93% 29.39 in 10.0 mi Calm Calm - N/A   Clear
7:36 AM 30.2 °F - 28.4 °F 93% 29.38 in 10.0 mi Calm Calm - N/A   Clear
7:56 AM 30.2 °F - 28.4 °F 93% 29.38 in 10.0 mi Calm Calm - N/A   Clear
8:16 AM 32.0 °F - 28.4 °F 87% 29.38 in 10.0 mi Calm Calm - N/A   Clear
8:36 AM 33.8 °F - 30.2 °F 87% 29.38 in 10.0 mi Calm Calm - N/A   Clear
8:56 AM 35.6 °F - 33.8 °F 93% 29.38 in 10.0 mi Calm Calm - N/A   Clear
9:16 AM 37.4 °F - 35.6 °F 93% 29.38 in 10.0 mi Calm Calm - N/A   Clear
9:36 AM 41.0 °F - 37.4 °F 87% 29.38 in 10.0 mi Calm Calm - N/A   Clear
10:16 AM 44.6 °F - 37.4 °F 76% 29.38 in 10.0 mi Calm Calm - N/A   Clear
10:36 AM 46.4 °F - 37.4 °F 71% 29.38 in 10.0 mi Calm Calm - N/A   Clear
10:56 AM 48.2 °F - 37.4 °F 66% 29.38 in 10.0 mi Calm Calm - N/A   Clear
11:16 AM 48.2 °F - 37.4 °F 66% 29.38 in 10.0 mi Calm Calm - N/A   Clear
11:36 AM 48.2 °F - 37.4 °F 66% 29.39 in 10.0 mi Calm Calm - N/A   Clear
11:56 AM 51.8 °F - 39.2 °F 62% 29.39 in 9.0 mi Calm Calm - N/A   Clear
12:16 PM 51.8 °F - 41.0 °F 67% 29.40 in 10.0 mi SE 6.9 mph - N/A   Clear
12:36 PM 50.0 °F - 39.2 °F 66% 29.41 in 10.0 mi SE 5.8 mph - N/A   Mostly Cloudy
12:56 PM 50.0 °F - 39.2 °F 66% 29.41 in 10.0 mi SE 5.8 mph - N/A   Overcast
1:16 PM 50.0 °F - 39.2 °F 66% 29.42 in 10.0 mi SE 5.8 mph - N/A   Overcast
1:36 PM 50.0 °F - 39.2 °F 66% 29.43 in 10.0 mi ESE 4.6 mph - N/A   Overcast
1:56 PM 50.0 °F - 39.2 °F 66% 29.44 in 10.0 mi ESE 4.6 mph - N/A   Overcast
2:16 PM 50.0 °F - 39.2 °F 66% 29.45 in 10.0 mi East 4.6 mph - N/A   Overcast
2:36 PM 50.0 °F - 39.2 °F 66% 29.45 in 10.0 mi East 4.6 mph - N/A   Overcast
2:56 PM 51.8 °F - 37.4 °F 58% 29.46 in 10.0 mi ESE 4.6 mph - N/A   Overcast
3:16 PM 51.8 °F - 39.2 °F 62% 29.46 in 10.0 mi ESE 3.5 mph - N/A   Overcast
3:36 PM 51.8 °F - 39.2 °F 62% 29.47 in 10.0 mi Calm Calm - N/A   Overcast
3:56 PM 53.6 °F - 37.4 °F 54% 29.47 in 10.0 mi Calm Calm - N/A   Overcast
4:36 PM 51.8 °F - 39.2 °F 62% 29.49 in 10.0 mi SSW 3.5 mph - N/A   Overcast
4:56 PM 51.8 °F - 39.2 °F 62% 29.50 in 10.0 mi South 6.9 mph - N/A   Overcast
5:16 PM 51.8 °F - 39.2 °F 62% 29.51 in 10.0 mi Calm Calm - N/A   Overcast
5:36 PM 51.8 °F - 39.2 °F 62% 29.52 in 10.0 mi SSE 3.5 mph - N/A   Overcast
5:56 PM 50.0 °F - 41.0 °F 71% 29.52 in 10.0 mi East 5.8 mph - N/A   Overcast
6:16 PM 48.2 °F - 41.0 °F 76% 29.53 in 10.0 mi East 6.9 mph - N/A   Overcast
6:36 PM 48.2 °F - 39.2 °F 71% 29.53 in 10.0 mi East 4.6 mph - N/A   Overcast
6:56 PM 48.2 °F - 39.2 °F 71% 29.54 in 10.0 mi ESE 5.8 mph - N/A   Overcast
7:16 PM 48.2 °F - 39.2 °F 71% 29.55 in 10.0 mi SSE 3.5 mph - N/A   Overcast
7:36 PM 46.4 °F 45.2 °F 41.0 °F 81% 29.55 in 10.0 mi SE 3.5 mph - N/A   Overcast
7:56 PM 46.4 °F 42.9 °F 39.2 °F 76% 29.56 in 10.0 mi SE 6.9 mph - N/A   Overcast
8:16 PM 48.2 °F - 39.2 °F 71% 29.56 in 10.0 mi ESE 6.9 mph - N/A   Overcast
8:36 PM 48.2 °F - 39.2 °F 71% 29.56 in 10.0 mi Calm Calm - N/A   Overcast
8:56 PM 46.4 °F - 39.2 °F 76% 29.57 in 10.0 mi Calm Calm - N/A   Mostly Cloudy
9:16 PM 46.4 °F 43.5 °F 39.2 °F 76% 29.57 in 10.0 mi ESE 5.8 mph - N/A   Overcast
9:36 PM 46.4 °F - 39.2 °F 76% 29.57 in 10.0 mi Calm Calm - N/A   Overcast
9:56 PM 44.6 °F - 39.2 °F 81% 29.58 in 10.0 mi Calm Calm - N/A   Overcast
10:16 PM 44.6 °F 43.1 °F 39.2 °F 81% 29.58 in 10.0 mi West 3.5 mph - N/A   Mostly Cloudy
10:36 PM 42.8 °F - 39.2 °F 87% 29.58 in 10.0 mi Calm Calm - N/A   Mostly Cloudy
10:56 PM 42.8 °F - 37.4 °F 81% 29.59 in 10.0 mi Calm Calm - N/A   Overcast
11:16 PM 41.0 °F 39.0 °F 37.4 °F 87% 29.59 in 10.0 mi North 3.5 mph - N/A   Overcast
11:36 PM 41.0 °F - 37.4 °F 87% 29.60 in 10.0 mi Calm Calm - N/A   Mostly Cloudy
11:56 PM 39.2 °F 37.0 °F 37.4 °F 93% 29.60 in 10.0 mi North 3.5 mph - N/A   Mostly Cloudy